Station Historical Data
Daily Summary for June 3, 2017 Units:  Metric    English   Both
« Previous Day
Next Day »
Daily Weekly Monthly Yearly Custom
  High: Low: Average:
Temperature: 21.2 °C 10.3 °C 16 °C
Dew Point: 10.8 °C 5.3 °C 7.8 °C
Humidity: 86% 40% 60%
Wind Speed: 11.3km/h 0km/h 3.4km/h
Wind Gust: 24.1km/h - -
Wind- - SW
Pressure: 1018.5 hPa 1015.5 hPa -
Precipitation: 0 mm    
Historical Graphs
 
 
Tabular Data for June 3, 2017
Time Temperature Dew Point Pressure Wind Wind Speed Wind Gust Humidity Rainfall Rate (Hourly)
00:04 12.1 °C 8.2 °C 1015.8 hPa Calm     77% 0 mm
00:09 12 °C 8.1 °C 1015.8 hPa Calm     77% 0 mm
00:14 11.9 °C 8.2 °C 1015.5 hPa Calm     78% 0 mm
00:19 11.8 °C 8.1 °C 1015.8 hPa Calm     78% 0 mm
00:24 11.8 °C 8.1 °C 1015.5 hPa Calm     78% 0 mm
00:29 11.8 °C 8.1 °C 1015.5 hPa Calm     78% 0 mm
00:34 11.9 °C 8.2 °C 1015.5 hPa Calm     78% 0 mm
00:39 11.9 °C 8.2 °C 1015.5 hPa Calm     78% 0 mm
00:44 11.9 °C 8.2 °C 1015.5 hPa Calm     78% 0 mm
00:49 11.8 °C 7.9 °C 1015.8 hPa Calm     77% 0 mm
00:54 11.8 °C 7.9 °C 1015.5 hPa Calm     77% 0 mm
00:59 11.8 °C 8.1 °C 1015.5 hPa Calm     78% 0 mm
01:04 11.8 °C 7.9 °C 1015.5 hPa Calm     77% 0 mm
01:09 11.9 °C 8 °C 1015.5 hPa Calm   3.2 km/h 77% 0 mm
01:14 12 °C 7.9 °C 1015.5 hPa NW 1.6 km/h 4.8 km/h 76% 0 mm
01:19 12.3 °C 7.9 °C 1015.5 hPa NW 1.6 km/h 4.8 km/h 75% 0 mm
01:24 12.4 °C 7.9 °C 1015.5 hPa NNW 1.6 km/h 4.8 km/h 74% 0 mm
01:29 12.4 °C 7.7 °C 1015.5 hPa NNW 3.2 km/h 4.8 km/h 73% 0 mm
01:34 12.6 °C 7.8 °C 1015.5 hPa NNW 1.6 km/h 4.8 km/h 73% 0 mm
01:39 12.6 °C 7.9 °C 1015.5 hPa Calm   1.6 km/h 73% 0 mm
01:44 12.6 °C 7.7 °C 1015.5 hPa Calm   1.6 km/h 72% 0 mm
01:49 12.6 °C 7.5 °C 1015.5 hPa Calm   3.2 km/h 71% 0 mm
01:54 12.6 °C 7.3 °C 1015.5 hPa North 1.6 km/h 4.8 km/h 70% 0 mm
01:59 12.6 °C 7.2 °C 1015.5 hPa NNW 1.6 km/h 8 km/h 70% 0 mm
02:04 12.5 °C 7.2 °C 1015.5 hPa North 1.6 km/h 8 km/h 70% 0 mm
02:09 12.6 °C 7.2 °C 1015.5 hPa NNW 1.6 km/h 4.8 km/h 70% 0 mm
02:14 12.4 °C 7.1 °C 1015.5 hPa NNW 1.6 km/h 8 km/h 70% 0 mm
02:19 12.4 °C 6.9 °C 1015.5 hPa NNW 1.6 km/h 8 km/h 69% 0 mm
02:29 12.3 °C 6.8 °C 1015.8 hPa NNW 3.2 km/h 6.4 km/h 69% 0 mm
02:34 12.3 °C 6.8 °C 1015.8 hPa NNW 4.8 km/h 8 km/h 69% 0 mm
02:39 12.2 °C 6.5 °C 1015.8 hPa Calm   11.3 km/h 68% 0 mm
02:44 12.2 °C 6.4 °C 1015.8 hPa Calm   8 km/h 68% 0 mm
02:49 12.1 °C 6.4 °C 1015.8 hPa North 3.2 km/h 4.8 km/h 68% 0 mm
02:54 12.1 °C 6.6 °C 1015.5 hPa North 3.2 km/h 4.8 km/h 69% 0 mm
02:59 12.1 °C 6.6 °C 1015.5 hPa North 1.6 km/h 3.2 km/h 69% 0 mm
03:04 12.2 °C 6.7 °C 1015.8 hPa North 1.6 km/h 6.4 km/h 69% 0 mm
03:09 12.2 °C 6.7 °C 1015.8 hPa North 1.6 km/h 6.4 km/h 69% 0 mm
03:14 12.2 °C 6.4 °C 1015.8 hPa NNW 3.2 km/h 8 km/h 68% 0 mm
03:19 12.2 °C 6.7 °C 1015.8 hPa NNW 3.2 km/h 8 km/h 69% 0 mm
03:24 12.1 °C 6.6 °C 1015.5 hPa Calm   4.8 km/h 69% 0 mm
03:29 12.2 °C 6.4 °C 1015.5 hPa ENE 1.6 km/h 6.4 km/h 68% 0 mm
03:34 12.2 °C 6.7 °C 1015.5 hPa NE 1.6 km/h 6.4 km/h 69% 0 mm
03:39 12.2 °C 7.1 °C 1015.8 hPa North 1.6 km/h 4.8 km/h 71% 0 mm
03:44 12.1 °C 7 °C 1015.8 hPa Calm   3.2 km/h 71% 0 mm
03:49 12.1 °C 7.3 °C 1015.8 hPa Calm   3.2 km/h 73% 0 mm
03:54 11.9 °C 7.4 °C 1015.8 hPa Calm     74% 0 mm
03:59 11.8 °C 7.3 °C 1015.8 hPa Calm     74% 0 mm
04:04 11.8 °C 7.6 °C 1015.8 hPa Calm     75% 0 mm
04:09 11.7 °C 7.4 °C 1015.8 hPa Calm     75% 0 mm
04:14 11.7 °C 7.8 °C 1015.8 hPa Calm     77% 0 mm
04:19 11.6 °C 7.4 °C 1015.8 hPa Calm     76% 0 mm
04:24 11.4 °C 7.7 °C 1015.8 hPa Calm     78% 0 mm
04:29 11.5 °C 8 °C 1016.1 hPa Calm     79% 0 mm
04:34 11.6 °C 8.1 °C 1016.1 hPa Calm     79% 0 mm
04:39 11.5 °C 8 °C 1016.1 hPa Calm     79% 0 mm
04:44 11.4 °C 7.9 °C 1016.1 hPa Calm     79% 0 mm
04:49 11.3 °C 7.8 °C 1016.1 hPa Calm     79% 0 mm
04:54 11.4 °C 8.1 °C 1016.5 hPa Calm     80% 0 mm
04:59 11.3 °C 7.8 °C 1016.1 hPa Calm     79% 0 mm
05:04 11.3 °C 7.6 °C 1016.1 hPa Calm     78% 0 mm
05:09 11.5 °C 8.2 °C 1016.1 hPa Calm     80% 0 mm
05:14 11.5 °C 8.2 °C 1016.1 hPa Calm     80% 0 mm
05:19 11.4 °C 8.1 °C 1016.5 hPa Calm     80% 0 mm
05:24 11.4 °C 7.9 °C 1016.5 hPa Calm     79% 0 mm
05:29 11.3 °C 8.2 °C 1016.8 hPa Calm     81% 0 mm
05:34 11.3 °C 8.1 °C 1016.8 hPa Calm     81% 0 mm
05:39 11.1 °C 7.9 °C 1016.8 hPa Calm     81% 0 mm
05:44 11 °C 8.1 °C 1016.8 hPa Calm     82% 0 mm
05:49 10.9 °C 8.2 °C 1017.2 hPa Calm     83% 0 mm
05:54 10.9 °C 8.1 °C 1017.2 hPa Calm     83% 0 mm
05:59 10.7 °C 8.1 °C 1017.2 hPa Calm     84% 0 mm
06:04 10.6 °C 7.9 °C 1017.2 hPa Calm     84% 0 mm
06:09 10.4 °C 8.1 °C 1017.2 hPa Calm     85% 0 mm
06:14 10.4 °C 8 °C 1017.2 hPa Calm     85% 0 mm
06:19 10.3 °C 8.1 °C 1017.2 hPa Calm     86% 0 mm
06:24 10.4 °C 8.2 °C 1017.5 hPa Calm     86% 0 mm
06:29 10.5 °C 8.3 °C 1017.5 hPa Calm     86% 0 mm
06:34 10.8 °C 8.6 °C 1017.8 hPa Calm     86% 0 mm
06:39 11.2 °C 8.7 °C 1017.8 hPa North 1.6 km/h 3.2 km/h 85% 0 mm
06:44 11.5 °C 8.7 °C 1017.8 hPa Calm   3.2 km/h 83% 0 mm
06:49 11.8 °C 8.5 °C 1018.2 hPa Calm   1.6 km/h 80% 0 mm
06:54 11.9 °C 8.1 °C 1017.8 hPa Calm     77% 0 mm
06:59 12.2 °C 7.9 °C 1017.8 hPa Calm   4.8 km/h 75% 0 mm
07:04 12.4 °C 7.7 °C 1018.2 hPa NNE 1.6 km/h 4.8 km/h 73% 0 mm
07:09 12.4 °C 7.7 °C 1018.2 hPa NNE 1.6 km/h 3.2 km/h 73% 0 mm
07:14 12.6 °C 7.4 °C 1018.2 hPa North 1.6 km/h 6.4 km/h 71% 0 mm
07:19 12.8 °C 7.2 °C 1018.2 hPa North 3.2 km/h 11.3 km/h 69% 0 mm
07:24 12.8 °C 7.1 °C 1018.2 hPa NNE 3.2 km/h 11.3 km/h 68% 0 mm
07:29 12.9 °C 6.9 °C 1018.2 hPa NNE 4.8 km/h 11.3 km/h 67% 0 mm
07:34 12.9 °C 6.9 °C 1018.5 hPa NNE 3.2 km/h 9.7 km/h 67% 0 mm
07:39 13.1 °C 6.8 °C 1018.5 hPa ENE 6.4 km/h 14.5 km/h 66% 0 mm
07:44 13.2 °C 7 °C 1018.5 hPa ENE 3.2 km/h 12.9 km/h 66% 0 mm
07:49 13.3 °C 7.1 °C 1018.5 hPa ENE 4.8 km/h 16.1 km/h 66% 0 mm
07:54 13.5 °C 7.1 °C 1018.5 hPa NE 3.2 km/h 11.3 km/h 65% 0 mm
07:59 13.6 °C 7.4 °C 1018.5 hPa North 4.8 km/h 11.3 km/h 66% 0 mm
08:04 13.7 °C 7.3 °C 1018.5 hPa North 4.8 km/h 8 km/h 65% 0 mm
08:09 13.7 °C 7.3 °C 1018.5 hPa ENE 6.4 km/h 11.3 km/h 65% 0 mm
08:14 14 °C 7.5 °C 1018.5 hPa NE 3.2 km/h 11.3 km/h 65% 0 mm
08:19 14.2 °C 7.7 °C 1018.5 hPa ENE 3.2 km/h 11.3 km/h 65% 0 mm
08:24 14.3 °C 7.3 °C 1018.5 hPa ENE 3.2 km/h 8 km/h 63% 0 mm
08:29 14.4 °C 7.7 °C 1018.5 hPa NE 3.2 km/h 9.7 km/h 64% 0 mm
08:34 14.5 °C 7.6 °C 1018.5 hPa NE 3.2 km/h 9.7 km/h 63% 0 mm
08:39 14.8 °C 8.5 °C 1018.5 hPa ESE 3.2 km/h 9.7 km/h 66% 0 mm
08:44 14.8 °C 7.6 °C 1018.5 hPa East 4.8 km/h 9.7 km/h 62% 0 mm
08:54 15.1 °C 7.8 °C 1018.5 hPa NNE 3.2 km/h 4.8 km/h 62% 0 mm
08:59 15 °C 7.6 °C 1018.5 hPa Calm   6.4 km/h 61% 0 mm
09:04 15.3 °C 7.6 °C 1018.5 hPa ENE 1.6 km/h 6.4 km/h 60% 0 mm
09:09 15.7 °C 7.9 °C 1018.5 hPa NE 3.2 km/h 11.3 km/h 60% 0 mm
09:14 15.9 °C 7.7 °C 1018.5 hPa ENE 3.2 km/h 8 km/h 58% 0 mm
09:19 15.8 °C 8.1 °C 1018.5 hPa NE 3.2 km/h 8 km/h 60% 0 mm
09:24 15.9 °C 8.8 °C 1018.5 hPa ENE 1.6 km/h 8 km/h 63% 0 mm
09:29 16.2 °C 7.9 °C 1018.5 hPa NE 1.6 km/h 8 km/h 58% 0 mm
09:34 16.4 °C 7.6 °C 1018.5 hPa NNE 1.6 km/h 8 km/h 56% 0 mm
09:39 16.4 °C 8.1 °C 1018.5 hPa ESE 1.6 km/h 6.4 km/h 58% 0 mm
09:44 16.8 °C 8 °C 1018.5 hPa ESE 1.6 km/h 6.4 km/h 56% 0 mm
09:49 16.7 °C 7.6 °C 1018.5 hPa SW 4.8 km/h 6.4 km/h 55% 0 mm
09:54 16.7 °C 8.6 °C 1018.5 hPa SSW 3.2 km/h 6.4 km/h 59% 0 mm
09:59 17.2 °C 8.6 °C 1018.5 hPa West 1.6 km/h 8 km/h 57% 0 mm
10:04 17.2 °C 8.1 °C 1018.2 hPa West 1.6 km/h 9.7 km/h 55% 0 mm
10:09 17.2 °C 7.8 °C 1018.2 hPa WSW 1.6 km/h 8 km/h 54% 0 mm
10:14 17.1 °C 7.9 °C 1018.2 hPa Calm   4.8 km/h 55% 0 mm
10:19 17.6 °C 8.9 °C 1018.2 hPa West 6.4 km/h 9.7 km/h 57% 0 mm
10:24 17.6 °C 7.9 °C 1018.2 hPa West 3.2 km/h 9.7 km/h 53% 0 mm
10:29 17.9 °C 8.2 °C 1018.2 hPa WNW 1.6 km/h 6.4 km/h 53% 0 mm
10:34 17.9 °C 8.4 °C 1018.2 hPa SW 4.8 km/h 6.4 km/h 54% 0 mm
10:39 17.7 °C 9.1 °C 1018.2 hPa WNW 4.8 km/h 8 km/h 57% 0 mm
10:44 17.6 °C 7.6 °C 1018.2 hPa SW 4.8 km/h 11.3 km/h 52% 0 mm
10:49 17.9 °C 7.6 °C 1018.2 hPa West 6.4 km/h 8 km/h 51% 0 mm
10:54 18.3 °C 9.1 °C 1018.2 hPa WNW 4.8 km/h 12.9 km/h 55% 0 mm
10:59 18.7 °C 8.6 °C 1018.2 hPa NW 3.2 km/h 12.9 km/h 52% 0 mm
11:04 19.1 °C 8.4 °C 1018.2 hPa NW 4.8 km/h 12.9 km/h 50% 0 mm
11:09 19.1 °C 8.7 °C 1018.2 hPa WNW 6.4 km/h 12.9 km/h 51% 0 mm
11:14 18.8 °C 7.9 °C 1018.2 hPa WNW 6.4 km/h 12.9 km/h 49% 0 mm
11:19 19.1 °C 8.2 °C 1018.2 hPa West 9.7 km/h 20.9 km/h 49% 0 mm
11:24 19.1 °C 7.8 °C 1018.2 hPa NNW 6.4 km/h 11.3 km/h 48% 0 mm
11:29 18.8 °C 7.9 °C 1017.8 hPa North 4.8 km/h 11.3 km/h 49% 0 mm
11:34 19.5 °C 9.4 °C 1017.8 hPa NNE 6.4 km/h 14.5 km/h 52% 0 mm
11:39 18.7 °C 8.1 °C 1017.8 hPa NW 3.2 km/h 11.3 km/h 50% 0 mm
11:44 18.7 °C 8.7 °C 1017.8 hPa West 9.7 km/h 14.5 km/h 52% 0 mm
11:49 19.1 °C 9.3 °C 1017.8 hPa NW 3.2 km/h 11.3 km/h 53% 0 mm
11:54 19.3 °C 9.2 °C 1017.8 hPa NW 3.2 km/h 12.9 km/h 52% 0 mm
11:59 19.9 °C 8.3 °C 1017.8 hPa WNW 8 km/h 19.3 km/h 47% 0 mm
12:04 19.9 °C 7.9 °C 1017.8 hPa WNW 8 km/h 19.3 km/h 46% 0 mm
12:09 19.7 °C 7.7 °C 1017.8 hPa NW 6.4 km/h 17.7 km/h 46% 0 mm
12:14 19.6 °C 8.6 °C 1017.5 hPa NNW 6.4 km/h 14.5 km/h 49% 0 mm
12:19 20.1 °C 8.1 °C 1017.5 hPa NNW 8 km/h 14.5 km/h 46% 0 mm
12:24 20.2 °C 9.4 °C 1017.8 hPa West 6.4 km/h 22.5 km/h 50% 0 mm
12:29 20.3 °C 10.4 °C 1017.8 hPa WNW 8 km/h 22.5 km/h 53% 0 mm
12:34 20.1 °C 9 °C 1017.8 hPa West 8 km/h 17.7 km/h 49% 0 mm
12:39 19.8 °C 9.1 °C 1017.8 hPa SW 11.3 km/h 19.3 km/h 50% 0 mm
12:44 19.9 °C 9.5 °C 1017.8 hPa SW 11.3 km/h 22.5 km/h 51% 0 mm
12:49 19.7 °C 9.8 °C 1017.8 hPa WSW 8 km/h 19.3 km/h 53% 0 mm
12:54 20.1 °C 9.6 °C 1017.8 hPa West 1.6 km/h 16.1 km/h 51% 0 mm
12:59 19.8 °C 9.3 °C 1017.8 hPa SW 8 km/h 20.9 km/h 51% 0 mm
13:04 20.3 °C 10.1 °C 1017.8 hPa SW 8 km/h 20.9 km/h 52% 0 mm
13:09 19.8 °C 9.7 °C 1017.8 hPa WSW 1.6 km/h 14.5 km/h 52% 0 mm
13:14 19.9 °C 9.5 °C 1017.8 hPa NW 11.3 km/h 14.5 km/h 51% 0 mm
13:19 20.3 °C 9.6 °C 1017.8 hPa WSW 1.6 km/h 14.5 km/h 50% 0 mm
13:24 20.4 °C 10.2 °C 1017.8 hPa WSW 9.7 km/h 14.5 km/h 52% 0 mm
13:29 20.4 °C 9.9 °C 1017.5 hPa WSW 6.4 km/h 16.1 km/h 51% 0 mm
13:34 20.4 °C 10.8 °C 1017.5 hPa SW 8 km/h 16.1 km/h 54% 0 mm
13:39 20.8 °C 9.7 °C 1017.5 hPa WSW 6.4 km/h 16.1 km/h 49% 0 mm
13:44 21.2 °C 9.1 °C 1017.5 hPa West 6.4 km/h 16.1 km/h 46% 0 mm
13:49 20.9 °C 8.9 °C 1017.5 hPa SW 4.8 km/h 12.9 km/h 46% 0 mm
13:59 20.4 °C 9.4 °C 1017.5 hPa WSW 8 km/h 17.7 km/h 49% 0 mm
14:04 20.7 °C 10.7 °C 1017.5 hPa WSW 8 km/h 16.1 km/h 53% 0 mm
14:09 20.4 °C 9.1 °C 1017.5 hPa SW 9.7 km/h 16.1 km/h 48% 0 mm
14:14 20.2 °C 9.4 °C 1017.5 hPa Calm   12.9 km/h 50% 0 mm
14:19 20.7 °C 9.6 °C 1017.2 hPa SW 9.7 km/h 12.9 km/h 49% 0 mm
14:24 20.6 °C 9.2 °C 1017.2 hPa SW 8 km/h 14.5 km/h 48% 0 mm
14:29 20.8 °C 8.4 °C 1017.5 hPa SW 8 km/h 19.3 km/h 45% 0 mm
14:34 20.8 °C 10.3 °C 1017.5 hPa WSW 8 km/h 19.3 km/h 51% 0 mm
14:39 20.4 °C 8.7 °C 1017.5 hPa WSW 9.7 km/h 20.9 km/h 47% 0 mm
14:44 20.2 °C 10.3 °C 1017.2 hPa WSW 11.3 km/h 20.9 km/h 53% 0 mm
14:49 20.3 °C 9.3 °C 1017.2 hPa West 8 km/h 17.7 km/h 49% 0 mm
14:54 20 °C 10.4 °C 1017.5 hPa WSW 11.3 km/h 19.3 km/h 54% 0 mm
14:59 20.1 °C 10.5 °C 1017.5 hPa WSW 11.3 km/h 19.3 km/h 54% 0 mm
15:04 20 °C 9.3 °C 1017.5 hPa WSW 11.3 km/h 20.9 km/h 50% 0 mm
15:09 20.1 °C 9.7 °C 1017.5 hPa WSW 8 km/h 14.5 km/h 51% 0 mm
15:14 20.3 °C 9.6 °C 1017.5 hPa West 9.7 km/h 17.7 km/h 50% 0 mm
15:19 20.4 °C 10.2 °C 1017.2 hPa WNW 4.8 km/h 19.3 km/h 52% 0 mm
15:24 20.4 °C 9.4 °C 1017.5 hPa WSW 11.3 km/h 22.5 km/h 49% 0 mm
15:29 20.4 °C 9 °C 1017.5 hPa SW 4.8 km/h 19.3 km/h 48% 0 mm
15:34 20.3 °C 9.5 °C 1017.5 hPa WSW 9.7 km/h 19.3 km/h 50% 0 mm
15:39 20.2 °C 9.4 °C 1017.5 hPa WSW 11.3 km/h 22.5 km/h 50% 0 mm
15:44 20.5 °C 8.8 °C 1017.5 hPa WSW 9.7 km/h 24.1 km/h 47% 0 mm
15:49 20.5 °C 9.4 °C 1017.2 hPa SW 9.7 km/h 24.1 km/h 49% 0 mm
15:54 20.4 °C 9 °C 1017.2 hPa SW 9.7 km/h 22.5 km/h 48% 0 mm
15:59 20.4 °C 8.4 °C 1017.2 hPa SW 6.4 km/h 17.7 km/h 46% 0 mm
16:04 20.6 °C 9.2 °C 1017.5 hPa SW 9.7 km/h 19.3 km/h 48% 0 mm
16:09 20.5 °C 9.1 °C 1017.2 hPa SW 11.3 km/h 17.7 km/h 48% 0 mm
16:14 20.6 °C 7.9 °C 1017.2 hPa West 9.7 km/h 14.5 km/h 44% 0 mm
16:19 20.7 °C 7.7 °C 1017.2 hPa WSW 4.8 km/h 16.1 km/h 43% 0 mm
16:24 20.6 °C 7.9 °C 1017.2 hPa South 8 km/h 14.5 km/h 44% 0 mm
16:29 20.7 °C 8 °C 1016.8 hPa SSW 3.2 km/h 14.5 km/h 44% 0 mm
16:34 20.9 °C 7.9 °C 1016.8 hPa SSW 6.4 km/h 14.5 km/h 43% 0 mm
16:39 21.2 °C 8.4 °C 1016.8 hPa South 4.8 km/h 11.3 km/h 44% 0 mm
16:44 21.1 °C 8.3 °C 1016.8 hPa SSW 4.8 km/h 12.9 km/h 44% 0 mm
16:49 21.1 °C 8.3 °C 1016.8 hPa West 6.4 km/h 14.5 km/h 44% 0 mm
16:54 20.9 °C 6.8 °C 1016.8 hPa West 8 km/h 14.5 km/h 40% 0 mm
16:59 20.8 °C 9.1 °C 1016.8 hPa WSW 8 km/h 11.3 km/h 47% 0 mm
17:04 20.7 °C 6.6 °C 1016.8 hPa SSW 3.2 km/h 11.3 km/h 40% 0 mm
17:09 20.7 °C 6.6 °C 1016.8 hPa SW 4.8 km/h 11.3 km/h 40% 0 mm
17:14 20.8 °C 6.7 °C 1016.8 hPa SW 9.7 km/h 9.7 km/h 40% 0 mm
17:19 21.1 °C 8 °C 1016.8 hPa WSW 9.7 km/h 12.9 km/h 43% 0 mm
17:24 21.1 °C 8.3 °C 1016.8 hPa West 4.8 km/h 11.3 km/h 44% 0 mm
17:29 20.8 °C 7.1 °C 1016.8 hPa SW 3.2 km/h 12.9 km/h 41% 0 mm
17:34 20.8 °C 7.4 °C 1016.8 hPa WSW 8 km/h 12.9 km/h 42% 0 mm
17:39 20.6 °C 7.2 °C 1016.8 hPa SW 8 km/h 12.9 km/h 42% 0 mm
17:44 20.6 °C 6.5 °C 1016.8 hPa SW 8 km/h 16.1 km/h 40% 0 mm
17:49 20.6 °C 6.8 °C 1016.8 hPa WSW 6.4 km/h 16.1 km/h 41% 0 mm
17:54 20.5 °C 7.5 °C 1016.8 hPa WSW 1.6 km/h 12.9 km/h 43% 0 mm
17:59 20.6 °C 6.8 °C 1016.8 hPa South 3.2 km/h 14.5 km/h 41% 0 mm
18:04 20.7 °C 8 °C 1016.8 hPa SW 6.4 km/h 19.3 km/h 44% 0 mm
18:09 20.6 °C 6.5 °C 1016.8 hPa SW 8 km/h 19.3 km/h 40% 0 mm
18:14 20.7 °C 6.9 °C 1016.8 hPa WSW 8 km/h 19.3 km/h 41% 0 mm
18:19 20.7 °C 6.9 °C 1016.8 hPa WSW 6.4 km/h 14.5 km/h 41% 0 mm
18:24 20.6 °C 7.6 °C 1016.8 hPa WSW 6.4 km/h 14.5 km/h 43% 0 mm
18:29 20.4 °C 7.1 °C 1016.5 hPa WSW 4.8 km/h 9.7 km/h 42% 0 mm
18:34 20.4 °C 6.7 °C 1016.5 hPa WSW 4.8 km/h 8 km/h 41% 0 mm
18:39 20.4 °C 6.3 °C 1016.5 hPa SW 4.8 km/h 12.9 km/h 40% 0 mm
18:44 20.3 °C 6.9 °C 1016.1 hPa SW 4.8 km/h 11.3 km/h 42% 0 mm
18:49 20.2 °C 7.9 °C 1016.1 hPa West 1.6 km/h 9.7 km/h 45% 0 mm
18:54 20.2 °C 7.2 °C 1016.1 hPa WSW 3.2 km/h 9.7 km/h 43% 0 mm
18:59 20.1 °C 7.4 °C 1016.1 hPa SW 6.4 km/h 12.9 km/h 44% 0 mm
19:04 19.9 °C 7.3 °C 1016.1 hPa SSW 3.2 km/h 9.7 km/h 44% 0 mm
19:09 19.7 °C 7.7 °C 1016.1 hPa WSW 6.4 km/h 8 km/h 46% 0 mm
19:14 19.5 °C 7.9 °C 1016.1 hPa SW 4.8 km/h 8 km/h 47% 0 mm
19:19 19.2 °C 7.3 °C 1016.1 hPa WSW 4.8 km/h 9.7 km/h 46% 0 mm
19:24 18.9 °C 7.4 °C 1016.1 hPa WSW 4.8 km/h 11.3 km/h 47% 0 mm
19:29 18.9 °C 7.6 °C 1016.1 hPa WSW 3.2 km/h 11.3 km/h 48% 0 mm
19:34 18.8 °C 7.3 °C 1016.1 hPa WSW 3.2 km/h 6.4 km/h 47% 0 mm
19:39 18.8 °C 6.9 °C 1016.1 hPa West 3.2 km/h 9.7 km/h 46% 0 mm
19:44 18.8 °C 6.6 °C 1016.1 hPa SW 3.2 km/h 9.7 km/h 45% 0 mm
19:49 18.9 °C 7.4 °C 1016.1 hPa SW 3.2 km/h 8 km/h 47% 0 mm
19:54 18.7 °C 7.1 °C 1016.1 hPa WSW 4.8 km/h 9.7 km/h 47% 0 mm
19:59 18.4 °C 6.6 °C 1016.1 hPa SW 6.4 km/h 8 km/h 46% 0 mm
20:04 18.2 °C 7 °C 1016.1 hPa SW 6.4 km/h 8 km/h 48% 0 mm
20:09 18 °C 5.9 °C 1016.1 hPa SW 1.6 km/h 9.7 km/h 45% 0 mm
20:14 17.8 °C 6 °C 1016.1 hPa Calm   9.7 km/h 46% 0 mm
20:19 17.6 °C 5.5 °C 1015.8 hPa SW 4.8 km/h 9.7 km/h 45% 0 mm
20:24 17.4 °C 5.9 °C 1016.1 hPa SW 4.8 km/h 9.7 km/h 47% 0 mm
20:29 17.2 °C 5.8 °C 1015.8 hPa SW 3.2 km/h 6.4 km/h 47% 0 mm
20:34 16.9 °C 5.8 °C 1015.8 hPa Calm     48% 0 mm
20:39 16.8 °C 6 °C 1015.8 hPa Calm     49% 0 mm
20:44 16.6 °C 5.8 °C 1015.8 hPa Calm     49% 0 mm
20:49 16.3 °C 5.6 °C 1016.1 hPa Calm     49% 0 mm
20:54 16.3 °C 5.6 °C 1015.8 hPa Calm     49% 0 mm
20:59 16.1 °C 5.3 °C 1015.8 hPa Calm     49% 0 mm
21:04 15.9 °C 5.8 °C 1015.8 hPa Calm     51% 0 mm
21:09 15.6 °C 5.5 °C 1015.8 hPa Calm     51% 0 mm
21:14 15.4 °C 5.8 °C 1015.8 hPa Calm     53% 0 mm
21:19 15.2 °C 5.9 °C 1015.8 hPa Calm     54% 0 mm
21:24 14.9 °C 6 °C 1015.8 hPa Calm     55% 0 mm
21:29 14.9 °C 5.9 °C 1016.1 hPa Calm     55% 0 mm
21:34 14.8 °C 5.9 °C 1016.1 hPa Calm     55% 0 mm
21:39 14.8 °C 5.8 °C 1016.1 hPa Calm     55% 0 mm
21:44 14.8 °C 5.6 °C 1016.1 hPa Calm     54% 0 mm
21:49 14.5 °C 5.8 °C 1016.1 hPa Calm     56% 0 mm
21:54 14.6 °C 5.6 °C 1016.1 hPa Calm     55% 0 mm
21:59 14.4 °C 5.7 °C 1016.1 hPa Calm     56% 0 mm
22:04 14.2 °C 5.8 °C 1016.5 hPa Calm     57% 0 mm
22:09 14.1 °C 5.9 °C 1016.5 hPa Calm     58% 0 mm
22:14 13.9 °C 6.1 °C 1016.5 hPa Calm     59% 0 mm
22:19 13.8 °C 6.2 °C 1016.5 hPa Calm     60% 0 mm
22:24 13.7 °C 6.1 °C 1016.5 hPa Calm     60% 0 mm
22:29 13.8 °C 6.2 °C 1016.1 hPa Calm     60% 0 mm
22:34 13.8 °C 6.2 °C 1016.1 hPa Calm     60% 0 mm
22:39 13.6 °C 6.2 °C 1016.1 hPa Calm     61% 0 mm
22:44 13.4 °C 6.3 °C 1016.1 hPa Calm     62% 0 mm
22:49 13.3 °C 6.4 °C 1016.1 hPa Calm     63% 0 mm
22:54 13.5 °C 6.8 °C 1016.1 hPa Calm     64% 0 mm
22:59 13.4 °C 7 °C 1016.1 hPa Calm     65% 0 mm
23:04 13.2 °C 7.2 °C 1016.1 hPa Calm     67% 0 mm
23:09 13.1 °C 7.3 °C 1016.1 hPa Calm     68% 0 mm
23:14 13.1 °C 7.3 °C 1016.1 hPa Calm     68% 0 mm
23:19 13.1 °C 7.5 °C 1016.1 hPa Calm     69% 0 mm
23:24 13.1 °C 7.7 °C 1016.1 hPa Calm     70% 0 mm
23:29 12.9 °C 7.6 °C 1015.8 hPa Calm     70% 0 mm
23:34 12.9 °C 7.8 °C 1015.8 hPa Calm     71% 0 mm
23:39 12.8 °C 7.9 °C 1016.1 hPa Calm     72% 0 mm
23:44 12.8 °C 8.1 °C 1016.1 hPa Calm     73% 0 mm
23:49 12.7 °C 7.9 °C 1016.1 hPa Calm     73% 0 mm
23:54 12.7 °C 8 °C 1016.1 hPa Calm     73% 0 mm
23:59 12.6 °C 7.9 °C 1016.1 hPa Calm     73% 0 mm
Buffalo, New York, USA
Compliments of Weather Underground - 2.5 mb